| time (UTC) | temp F | wind direction | speed MPH | gust MPH | rain 1hr in | rain 24hr in | rain mn in | humidity % | barometer mb |
| 20260505204824 | 83 | 127 | 2.0 | 11.0 | 0.00 | 0.00 | 0.00 | 30 | 1002.6 |
| 20260505204322 | 83 | 29 | 5.0 | 11.0 | 0.00 | 0.00 | 0.00 | 29 | 1002.6 |
| 20260505203819 | 83 | 142 | 7.0 | 13.0 | 0.00 | 0.00 | 0.00 | 29 | 1002.7 |
| 20260505203316 | 84 | 131 | 3.0 | 11.0 | 0.00 | 0.00 | 0.00 | 29 | 1002.4 |
| 20260505202812 | 85 | 145 | 4.0 | 16.0 | 0.00 | 0.00 | 0.00 | 28 | 1002.6 |
| 20260505202308 | 85 | 314 | 6.0 | 9.0 | 0.00 | 0.00 | 0.00 | 27 | 1002.3 |
| 20260505201805 | 85 | 168 | 3.0 | 4.0 | 0.00 | 0.00 | 0.00 | 29 | 1002.7 |
| 20260505201302 | 84 | 236 | 6.0 | 9.0 | 0.00 | 0.00 | 0.00 | 28 | 1002.9 |
| 20260505200801 | 84 | 289 | 2.0 | 8.0 | 0.00 | 0.00 | 0.00 | 28 | 1002.8 |
| 20260505200257 | 84 | 227 | 6.0 | 8.0 | 0.00 | 0.00 | 0.00 | 27 | 1002.6 |
| 20260505195752 | 84 | 183 | 3.0 | 15.0 | 0.00 | 0.00 | 0.00 | 28 | 1002.9 |
| 20260505195251 | 84 | 219 | 2.0 | 13.0 | 0.00 | 0.00 | 0.00 | 28 | 1002.9 |
| 20260505194747 | 85 | 231 | 8.0 | 16.0 | 0.00 | 0.00 | 0.00 | 27 | 1002.9 |
| 20260505194244 | 85 | 42 | 4.0 | 9.0 | 0.00 | 0.00 | 0.00 | 27 | 1002.7 |
| 20260505193739 | 85 | 177 | 6.0 | 15.0 | 0.00 | 0.00 | 0.00 | 27 | 1002.7 |
| 20260505193237 | 86 | 101 | 7.0 | 9.0 | 0.00 | 0.00 | 0.00 | 27 | 1002.8 |
| 20260505192736 | 84 | 264 | 4.0 | 8.0 | 0.00 | 0.00 | 0.00 | 28 | 1002.9 |
| 20260505192233 | 84 | 212 | 5.0 | 11.0 | 0.00 | 0.00 | 0.00 | 27 | 1003.2 |
| 20260505191731 | 84 | 132 | 2.0 | 10.0 | 0.00 | 0.00 | 0.00 | 29 | 1003.0 |
| 20260505191229 | 85 | 149 | 4.0 | 10.0 | 0.00 | 0.00 | 0.00 | 29 | 1002.9 |
| 20260505190725 | 86 | 54 | 8.0 | 11.0 | 0.00 | 0.00 | 0.00 | 27 | 1003.1 |
| 20260505190225 | 84 | 155 | 2.0 | 6.0 | 0.00 | 0.00 | 0.00 | 28 | 1003.3 |
| 20260505185722 | 85 | 232 | 7.0 | 15.0 | 0.00 | 0.00 | 0.00 | 27 | 1003.4 |
| 20260505185218 | 84 | 186 | 2.0 | 9.0 | 0.00 | 0.00 | 0.00 | 29 | 1003.5 |
| 20260505184714 | 84 | 282 | 2.0 | 11.0 | 0.00 | 0.00 | 0.00 | 29 | 1003.3 |
| 20260505184212 | 84 | 306 | 8.0 | 13.0 | 0.00 | 0.00 | 0.00 | 28 | 1003.4 |
| 20260505183708 | 84 | 143 | 6.0 | 13.0 | 0.00 | 0.00 | 0.00 | 29 | 1003.8 |
| 20260505183206 | 83 | 222 | 3.0 | 13.0 | 0.00 | 0.00 | 0.00 | 30 | 1003.9 |
| 20260505182702 | 83 | 50 | 3.0 | 10.0 | 0.00 | 0.00 | 0.00 | 30 | 1003.9 |
| 20260505182159 | 83 | 82 | 3.0 | 14.0 | 0.00 | 0.00 | 0.00 | 30 | 1004.0 |
| 20260505181655 | 83 | 245 | 6.0 | 10.0 | 0.00 | 0.00 | 0.00 | 31 | 1004.0 |
| 20260505181153 | 84 | 245 | 7.0 | 9.0 | 0.00 | 0.00 | 0.00 | 30 | 1004.0 |
| 20260505180649 | 84 | 288 | 4.0 | 11.0 | 0.00 | 0.00 | 0.00 | 31 | 1003.9 |
| 20260505180147 | 84 | 208 | 3.0 | 6.0 | 0.00 | 0.00 | 0.00 | 31 | 1004.0 |
| 20260505175642 | 84 | 213 | 4.0 | 13.0 | 0.00 | 0.00 | 0.00 | 31 | 1004.1 |
| 20260505175139 | 84 | 109 | 4.0 | 8.0 | 0.00 | 0.00 | 0.00 | 31 | 1004.2 |
| 20260505174636 | 83 | 173 | 8.0 | 11.0 | 0.00 | 0.00 | 0.00 | 30 | 1004.3 |
| 20260505174132 | 83 | 172 | 4.0 | 8.0 | 0.00 | 0.00 | 0.00 | 32 | 1004.2 |
| 20260505173629 | 84 | 209 | 7.0 | 9.0 | 0.00 | 0.00 | 0.00 | 31 | 1004.4 |
| 20260505173126 | 84 | 185 | 3.0 | 7.0 | 0.00 | 0.00 | 0.00 | 31 | 1004.5 |
| 20260505172623 | 83 | 95 | 4.0 | 6.0 | 0.00 | 0.00 | 0.00 | 31 | 1004.4 |
| 20260505172120 | 83 | 169 | 4.0 | 7.0 | 0.00 | 0.00 | 0.00 | 31 | 1004.5 |
| 20260505171614 | 83 | 339 | 3.0 | 8.0 | 0.00 | 0.00 | 0.00 | 31 | 1004.6 |
| 20260505171112 | 83 | 89 | 4.0 | 11.0 | 0.00 | 0.00 | 0.00 | 32 | 1004.5 |
| 20260505170609 | 83 | 134 | 0.0 | 8.0 | 0.00 | 0.00 | 0.00 | 34 | 1004.5 |
| 20260505170105 | 82 | 273 | 2.0 | 7.0 | 0.00 | 0.00 | 0.00 | 34 | 1004.6 |
| 20260505165600 | 82 | 156 | 6.0 | 11.0 | 0.00 | 0.00 | 0.00 | 32 | 1005.0 |
| 20260505165056 | 82 | 158 | 3.0 | 10.0 | 0.00 | 0.00 | 0.00 | 34 | 1004.9 |
| 20260505164552 | 82 | 118 | 2.0 | 8.0 | 0.00 | 0.00 | 0.00 | 34 | 1005.2 |
| 20260505164050 | 81 | 28 | 2.0 | 7.0 | 0.00 | 0.00 | 0.00 | 35 | 1005.3 |
| 20260505163548 | 81 | 148 | 6.0 | 9.0 | 0.00 | 0.00 | 0.00 | 34 | 1005.3 |
| 20260505163045 | 81 | 221 | 7.0 | 11.0 | 0.00 | 0.00 | 0.00 | 35 | 1005.6 |
| 20260505162543 | 81 | 181 | 5.0 | 14.0 | 0.00 | 0.00 | 0.00 | 35 | 1005.6 |
| 20260505162041 | 80 | 143 | 3.0 | 8.0 | 0.00 | 0.00 | 0.00 | 35 | 1005.6 |
| 20260505161537 | 80 | 176 | 4.0 | 8.0 | 0.00 | 0.00 | 0.00 | 35 | 1005.9 |
| 20260505161035 | 80 | 220 | 6.0 | 9.0 | 0.00 | 0.00 | 0.00 | 37 | 1005.9 |
| 20260505160532 | 80 | 172 | 5.0 | 8.0 | 0.00 | 0.00 | 0.00 | 37 | 1006.0 |
| 20260505153009 | 75 | 56 | 2.0 | 9.0 | 0.00 | 0.00 | 0.00 | 42 | 1006.9 |
| 20260505152506 | 76 | 217 | 4.0 | 7.0 | 0.00 | 0.00 | 0.00 | 41 | 1006.9 |
| 20260505152001 | 76 | 176 | 3.0 | 4.0 | 0.00 | 0.00 | 0.00 | 41 | 1006.9 |
| 20260505151456 | 75 | 216 | 3.0 | 7.0 | 0.00 | 0.00 | 0.00 | 41 | 1007.2 |
| 20260505150955 | 75 | 159 | 1.0 | 6.0 | 0.00 | 0.00 | 0.00 | 43 | 1007.1 |
| 20260505150451 | 75 | 82 | 6.0 | 8.0 | 0.00 | 0.00 | 0.00 | 42 | 1007.1 |
| 20260505140421 | 70 | 63 | 2.0 | 4.0 | 0.00 | 0.00 | 0.00 | 49 | 1007.4 |
| 20260505124834 | 63 | 155 | 2.0 | 7.0 | 0.00 | 0.00 | 0.00 | 56 | 1007.3 |
| 20260505124332 | 62 | 176 | 0.0 | 4.0 | 0.00 | 0.00 | 0.00 | 58 | 1007.4 |
| 20260505123828 | 62 | 189 | 2.0 | 3.0 | 0.00 | 0.00 | 0.00 | 58 | 1007.3 |
| 20260505123324 | 62 | 154 | 1.0 | 4.0 | 0.00 | 0.00 | 0.00 | 59 | 1007.6 |
| 20260505122820 | 61 | 217 | 1.0 | 3.0 | 0.00 | 0.00 | 0.00 | 61 | 1007.8 |
| 20260505122318 | 60 | 186 | 2.0 | 3.0 | 0.00 | 0.00 | 0.00 | 61 | 1007.8 |
| 20260505121814 | 59 | 131 | 0.0 | 4.0 | 0.00 | 0.00 | 0.00 | 62 | 1007.5 |
| 20260505121311 | 59 | 152 | 1.0 | 4.0 | 0.00 | 0.00 | 0.00 | 63 | 1007.7 |
| 20260505120808 | 59 | 184 | 2.0 | 4.0 | 0.00 | 0.00 | 0.00 | 64 | 1007.5 |
| 20260505120304 | 58 | 126 | 1.0 | 2.0 | 0.00 | 0.00 | 0.00 | 64 | 1007.7 |
| 20260505115802 | 58 | 218 | 0.0 | 6.0 | 0.00 | 0.00 | 0.00 | 64 | 1007.9 |
| 20260505115300 | 58 | 183 | 2.0 | 8.0 | 0.00 | 0.00 | 0.00 | 64 | 1007.8 |
| 20260505114757 | 58 | 130 | 1.0 | 3.0 | 0.00 | 0.00 | 0.00 | 65 | 1007.9 |
| 20260505114253 | 57 | 120 | 2.0 | 2.0 | 0.00 | 0.00 | 0.00 | 66 | 1007.5 |
| 20260505113750 | 56 | 172 | 1.0 | 3.0 | 0.00 | 0.00 | 0.00 | 67 | 1007.6 |
| 20260505113247 | 56 | 106 | 1.0 | 2.0 | 0.00 | 0.00 | 0.00 | 68 | 1007.6 |
| 20260505112743 | 55 | 157 | 1.0 | 3.0 | 0.00 | 0.00 | 0.00 | 69 | 1007.6 |
| 20260505112241 | 55 | 135 | 3.0 | 6.0 | 0.00 | 0.00 | 0.00 | 69 | 1007.5 |
| 20260505111740 | 55 | 137 | 0.0 | 2.0 | 0.00 | 0.00 | 0.00 | 69 | 1007.5 |
| 20260505111236 | 55 | 159 | 1.0 | 1.0 | 0.00 | 0.00 | 0.00 | 69 | 1007.5 |
| 20260505110732 | 54 | 193 | 2.0 | 3.0 | 0.00 | 0.00 | 0.00 | 69 | 1007.5 |
| 20260505110230 | 54 | 174 | 2.0 | 3.0 | 0.00 | 0.00 | 0.00 | 69 | 1007.5 |
| 20260505102206 | 52 | 149 | 0.0 | 1.0 | 0.00 | 0.00 | 0.00 | 72 | 1007.5 |
| 20260505101704 | 52 | 226 | 0.0 | 1.0 | 0.00 | 0.00 | 0.00 | 72 | 1007.4 |
| 20260505101200 | 51 | 84 | 0.0 | 1.0 | 0.00 | 0.00 | 0.00 | 73 | 1007.4 |
| 20260505100656 | 51 | 133 | 1.0 | 2.0 | 0.00 | 0.00 | 0.00 | 74 | 1007.6 |
| 20260505100154 | 50 | 150 | 1.0 | 1.0 | 0.00 | 0.00 | 0.00 | 76 | 1007.3 |
| 20260505095649 | 50 | 115 | 0.0 | 0.0 | 0.00 | 0.00 | 0.00 | 78 | 1007.4 |
| 20260505095147 | 49 | 94 | 0.0 | 1.0 | 0.00 | 0.00 | 0.00 | 79 | 1007.4 |
| 20260505094643 | 48 | 129 | 0.0 | 0.0 | 0.00 | 0.00 | 0.00 | 80 | 1007.5 |
| 20260505094139 | 48 | 138 | 0.0 | 0.0 | 0.00 | 0.00 | 0.00 | 79 | 1007.4 |
| 20260505093636 | 48 | 135 | 0.0 | 0.0 | 0.00 | 0.00 | 0.00 | 79 | 1007.5 |
| 20260505093133 | 48 | 133 | 0.0 | 0.0 | 0.00 | 0.00 | 0.00 | 78 | 1007.7 |
| 20260505092630 | 49 | 133 | 0.0 | 0.0 | 0.00 | 0.00 | 0.00 | 78 | 1007.5 |
| 20260505092129 | 49 | 134 | 0.0 | 1.0 | 0.00 | 0.00 | 0.00 | 77 | 1007.6 |
| 20260505091625 | 49 | 127 | 0.0 | 0.0 | 0.00 | 0.00 | 0.00 | 76 | 1007.4 |
| 20260505091124 | 49 | 127 | 0.0 | 0.0 | 0.00 | 0.00 | 0.00 | 75 | 1007.7 |
| 20260505090621 | 50 | 122 | 0.0 | 0.0 | 0.00 | 0.00 | 0.00 | 74 | 1007.7 |
| 20260505090119 | 50 | 156 | 0.0 | 0.0 | 0.00 | 0.00 | 0.00 | 73 | 1007.6 |
| 20260505085616 | 51 | 110 | 0.0 | 0.0 | 0.00 | 0.00 | 0.00 | 73 | 1007.6 |
| 20260505085114 | 51 | 117 | 0.0 | 0.0 | 0.00 | 0.00 | 0.00 | 72 | 1007.4 |
| 20260505084612 | 51 | 129 | 0.0 | 0.0 | 0.00 | 0.00 | 0.00 | 72 | 1007.4 |
| 20260505084110 | 51 | 148 | 0.0 | 1.0 | 0.00 | 0.00 | 0.00 | 72 | 1007.5 |
| 20260505083607 | 51 | 117 | 0.0 | 1.0 | 0.00 | 0.00 | 0.00 | 71 | 1007.5 |
| 20260505083103 | 51 | 115 | 0.0 | 1.0 | 0.00 | 0.00 | 0.00 | 71 | 1007.7 |
| 20260505082559 | 51 | 127 | 1.0 | 1.0 | 0.00 | 0.00 | 0.00 | 72 | 1007.6 |
| 20260505082056 | 50 | 86 | 0.0 | 0.0 | 0.00 | 0.00 | 0.00 | 73 | 1007.8 |
| 20260505081552 | 51 | 110 | 0.0 | 0.0 | 0.00 | 0.00 | 0.00 | 72 | 1007.9 |
| 20260505081050 | 51 | 120 | 0.0 | 0.0 | 0.00 | 0.00 | 0.00 | 71 | 1007.6 |
| 20260505080546 | 51 | 118 | 0.0 | 0.0 | 0.00 | 0.00 | 0.00 | 71 | 1007.8 |
| 20260505080043 | 51 | 107 | 0.0 | 0.0 | 0.00 | 0.00 | 0.00 | 71 | 1007.6 |
| 20260505075538 | 51 | 140 | 0.0 | 0.0 | 0.00 | 0.00 | 0.00 | 71 | 1007.8 |
| 20260505075036 | 51 | 124 | 0.0 | 0.0 | 0.00 | 0.00 | 0.00 | 72 | 1007.7 |
| 20260505074532 | 51 | 101 | 0.0 | 0.0 | 0.00 | 0.00 | 0.00 | 72 | 1007.8 |
| 20260505074030 | 51 | 104 | 0.0 | 0.0 | 0.00 | 0.00 | 0.00 | 71 | 1007.9 |
| 20260505073527 | 51 | 114 | 0.0 | 0.0 | 0.00 | 0.00 | 0.00 | 71 | 1008.0 |
| 20260505073026 | 51 | 110 | 0.0 | 0.0 | 0.00 | 0.00 | 0.00 | 71 | 1007.9 |
| 20260505072521 | 51 | 111 | 0.0 | 0.0 | 0.00 | 0.00 | 0.00 | 70 | 1007.9 |
| 20260505072017 | 51 | 128 | 0.0 | 0.0 | 0.00 | 0.00 | 0.00 | 70 | 1008.0 |
| 20260505071513 | 51 | 119 | 0.0 | 0.0 | 0.00 | 0.00 | 0.00 | 69 | 1007.8 |
| 20260505071011 | 52 | 135 | 0.0 | 0.0 | 0.00 | 0.00 | 0.00 | 68 | 1008.1 |
| 20260505070508 | 52 | 135 | 0.0 | 0.0 | 0.00 | 0.00 | 0.00 | 68 | 1007.9 |
| 20260505070004 | 52 | 152 | 0.0 | 0.0 | 0.00 | 0.00 | 0.00 | 68 | 1008.0 |
| 20260505065500 | 52 | 147 | 0.0 | 0.0 | 0.00 | 0.00 | 0.00 | 68 | 1007.8 |
| 20260505064956 | 52 | 118 | 0.0 | 0.0 | 0.00 | 0.00 | 0.00 | 68 | 1007.9 |
| 20260505064453 | 52 | 95 | 0.0 | 0.0 | 0.00 | 0.00 | 0.00 | 67 | 1007.9 |
| 20260505063952 | 53 | 115 | 0.0 | 0.0 | 0.00 | 0.00 | 0.00 | 66 | 1007.9 |
| 20260505063448 | 53 | 107 | 0.0 | 0.0 | 0.00 | 0.00 | 0.00 | 65 | 1008.1 |
| 20260505062945 | 53 | 107 | 0.0 | 1.0 | 0.00 | 0.00 | 0.00 | 64 | 1008.0 |
| 20260505062442 | 53 | 126 | 0.0 | 0.0 | 0.00 | 0.00 | 0.00 | 65 | 1008.3 |
| 20260505061938 | 53 | 145 | 1.0 | 1.0 | 0.00 | 0.00 | 0.00 | 65 | 1008.2 |
| 20260505061437 | 54 | 112 | 0.0 | 0.0 | 0.00 | 0.00 | 0.00 | 63 | 1008.1 |
| 20260505060934 | 53 | 147 | 0.0 | 2.0 | 0.00 | 0.00 | 0.00 | 63 | 1008.2 |
| 20260505060431 | 54 | 120 | 0.0 | 0.0 | 0.00 | 0.00 | 0.00 | 63 | 1008.2 |
| 20260505055927 | 54 | 119 | 0.0 | 0.0 | 0.00 | 0.00 | 0.00 | 62 | 1008.2 |
| 20260505055423 | 54 | 81 | 0.0 | 1.0 | 0.00 | 0.00 | 0.00 | 62 | 1008.1 |
| 20260505054920 | 55 | 110 | 0.0 | 1.0 | 0.00 | 0.00 | 0.00 | 61 | 1008.4 |
| 20260505054417 | 54 | 121 | 0.0 | 2.0 | 0.00 | 0.00 | 0.00 | 62 | 1008.5 |
| 20260505053915 | 54 | 141 | 0.0 | 1.0 | 0.00 | 0.00 | 0.00 | 62 | 1008.4 |
| 20260505053412 | 54 | 128 | 0.0 | 1.0 | 0.00 | 0.00 | 0.00 | 62 | 1008.2 |
| 20260505052909 | 55 | 132 | 0.0 | 0.0 | 0.00 | 0.00 | 0.00 | 62 | 1008.4 |
| 20260505052406 | 55 | 140 | 0.0 | 1.0 | 0.00 | 0.00 | 0.00 | 61 | 1008.3 |
| 20260505051903 | 55 | 124 | 0.0 | 0.0 | 0.00 | 0.00 | 0.00 | 61 | 1008.2 |
| 20260505051400 | 55 | 143 | 0.0 | 0.0 | 0.00 | 0.00 | 0.00 | 60 | 1008.3 |
| 20260505050858 | 55 | 126 | 0.0 | 2.0 | 0.00 | 0.00 | 0.00 | 60 | 1008.1 |
| 20260505050357 | 55 | 111 | 0.0 | 1.0 | 0.00 | 0.00 | 0.00 | 60 | 1008.2 |
| 20260505041324 | 57 | 119 | 0.0 | 0.0 | 0.00 | 0.00 | 0.00 | 55 | 1008.0 |
| 20260505040821 | 57 | 123 | 0.0 | 0.0 | 0.00 | 0.00 | 0.00 | 55 | 1008.0 |
| 20260505040319 | 58 | 141 | 0.0 | 1.0 | 0.00 | 0.00 | 0.00 | 54 | 1008.0 |
| 20260505035815 | 58 | 99 | 2.0 | 2.0 | 0.00 | 0.00 | 0.00 | 54 | 1007.8 |
| 20260505035311 | 58 | 127 | 1.0 | 4.0 | 0.00 | 0.00 | 0.00 | 53 | 1008.0 |
| 20260505034808 | 58 | 95 | 0.0 | 1.0 | 0.00 | 0.00 | 0.00 | 53 | 1007.8 |
| 20260505034305 | 58 | 194 | 3.0 | 4.0 | 0.00 | 0.00 | 0.00 | 52 | 1007.8 |
| 20260505033802 | 59 | 121 | 0.0 | 2.0 | 0.00 | 0.00 | 0.00 | 53 | 1007.6 |
| 20260505033259 | 59 | 148 | 1.0 | 1.0 | 0.00 | 0.00 | 0.00 | 52 | 1007.8 |
| 20260505032757 | 59 | 197 | 2.0 | 2.0 | 0.00 | 0.00 | 0.00 | 51 | 1008.0 |
| 20260505032253 | 60 | 138 | 0.0 | 3.0 | 0.00 | 0.00 | 0.00 | 51 | 1007.7 |
| 20260505031750 | 60 | 101 | 2.0 | 4.0 | 0.00 | 0.00 | 0.00 | 50 | 1007.6 |
| 20260505031246 | 60 | 138 | 1.0 | 3.0 | 0.00 | 0.00 | 0.00 | 50 | 1007.6 |
| 20260505030744 | 60 | 193 | 2.0 | 6.0 | 0.00 | 0.00 | 0.00 | 50 | 1007.6 |
| 20260505030240 | 61 | 87 | 2.0 | 3.0 | 0.00 | 0.00 | 0.00 | 49 | 1007.8 |
| 20260505025735 | 61 | 157 | 1.0 | 4.0 | 0.00 | 0.00 | 0.00 | 49 | 1007.6 |
| 20260505025234 | 61 | 106 | 1.0 | 3.0 | 0.00 | 0.00 | 0.00 | 49 | 1007.6 |
| 20260505024732 | 61 | 85 | 0.0 | 2.0 | 0.00 | 0.00 | 0.00 | 49 | 1007.4 |
| 20260505024229 | 61 | 175 | 3.0 | 4.0 | 0.00 | 0.00 | 0.00 | 48 | 1007.5 |
| 20260505023726 | 61 | 35 | 1.0 | 3.0 | 0.00 | 0.00 | 0.00 | 48 | 1007.5 |
| 20260505023223 | 62 | 112 | 2.0 | 4.0 | 0.00 | 0.00 | 0.00 | 47 | 1007.4 |
| 20260505022721 | 62 | 246 | 1.0 | 2.0 | 0.00 | 0.00 | 0.00 | 48 | 1007.6 |
| 20260505022217 | 62 | 185 | 4.0 | 6.0 | 0.00 | 0.00 | 0.00 | 47 | 1007.7 |
| 20260505021714 | 62 | 104 | 3.0 | 3.0 | 0.00 | 0.00 | 0.00 | 47 | 1007.6 |
| 20260505021211 | 62 | 106 | 3.0 | 6.0 | 0.00 | 0.00 | 0.00 | 47 | 1007.6 |
| 20260505020707 | 62 | 180 | 3.0 | 4.0 | 0.00 | 0.00 | 0.00 | 47 | 1007.7 |
| 20260505020202 | 62 | 99 | 2.0 | 2.0 | 0.00 | 0.00 | 0.00 | 47 | 1007.5 |
| 20260505015700 | 62 | 204 | 2.0 | 4.0 | 0.00 | 0.00 | 0.00 | 46 | 1007.6 |
| 20260505015156 | 62 | 205 | 7.0 | 9.0 | 0.00 | 0.00 | 0.00 | 46 | 1007.6 |
| 20260505014654 | 62 | 103 | 1.0 | 2.0 | 0.00 | 0.00 | 0.00 | 46 | 1007.3 |
| 20260505014151 | 62 | 200 | 2.0 | 3.0 | 0.00 | 0.00 | 0.00 | 46 | 1007.4 |
| 20260505013648 | 62 | 138 | 2.0 | 6.0 | 0.00 | 0.00 | 0.00 | 45 | 1007.3 |
| 20260505013145 | 63 | 144 | 1.0 | 4.0 | 0.00 | 0.00 | 0.00 | 45 | 1007.3 |
| 20260505012643 | 62 | 104 | 1.0 | 6.0 | 0.00 | 0.00 | 0.00 | 44 | 1007.1 |
| 20260505012140 | 61 | 125 | 1.0 | 4.0 | 0.00 | 0.00 | 0.00 | 45 | 1007.0 |
| 20260505011635 | 60 | 164 | 1.0 | 9.0 | 0.00 | 0.00 | 0.00 | 46 | 1007.0 |
| 20260505011134 | 61 | 144 | 0.0 | 0.0 | 0.00 | 0.00 | 0.00 | 46 | 1006.8 |
| 20260505010633 | 62 | 115 | 0.0 | 0.0 | 0.00 | 0.00 | 0.00 | 44 | 1006.7 |
| 20260505010130 | 63 | 137 | 0.0 | 0.0 | 0.00 | 0.00 | 0.00 | 43 | 1006.5 |
| 20260505005626 | 63 | 150 | 0.0 | 0.0 | 0.00 | 0.00 | 0.00 | 42 | 1006.5 |
| 20260505005124 | 64 | 135 | 0.0 | 0.0 | 0.00 | 0.00 | 0.00 | 40 | 1006.2 |
| 20260505004621 | 64 | 78 | 1.0 | 2.0 | 0.00 | 0.00 | 0.00 | 39 | 1006.4 |
| 20260505004117 | 64 | 160 | 0.0 | 1.0 | 0.00 | 0.00 | 0.00 | 40 | 1006.2 |
| 20260505003614 | 65 | 120 | 0.0 | 0.0 | 0.00 | 0.00 | 0.00 | 39 | 1006.2 |
| 20260505003112 | 65 | 134 | 1.0 | 2.0 | 0.00 | 0.00 | 0.00 | 39 | 1005.7 |
| 20260505002608 | 65 | 139 | 1.0 | 2.0 | 0.00 | 0.00 | 0.00 | 38 | 1005.7 |
| 20260505002107 | 65 | 73 | 0.0 | 1.0 | 0.00 | 0.00 | 0.00 | 38 | 1005.7 |
| 20260505001603 | 66 | 141 | 0.0 | 1.0 | 0.00 | 0.00 | 0.00 | 38 | 1005.6 |
| 20260505001101 | 66 | 135 | 0.0 | 2.0 | 0.00 | 0.00 | 0.00 | 36 | 1005.5 |
| 20260505000558 | 66 | 229 | 0.0 | 1.0 | 0.00 | 0.00 | 0.00 | 36 | 1005.5 |
| 20260505000055 | 67 | 97 | 0.0 | 0.0 | 0.00 | 0.00 | 0.00 | 36 | 1005.2 |
| 20260504235552 | 67 | 112 | 0.0 | 1.0 | 0.00 | 0.00 | 0.00 | 35 | 1005.2 |
| 20260504235048 | 67 | 244 | 1.0 | 2.0 | 0.00 | 0.00 | 0.00 | 35 | 1005.1 |
| 20260504234545 | 68 | 130 | 0.0 | 4.0 | 0.00 | 0.00 | 0.00 | 35 | 1005.0 |
| 20260504234043 | 68 | 163 | 0.0 | 3.0 | 0.00 | 0.00 | 0.00 | 34 | 1005.1 |
| 20260504233538 | 68 | 158 | 1.0 | 2.0 | 0.00 | 0.00 | 0.00 | 34 | 1005.2 |
| 20260504233035 | 68 | 225 | 4.0 | 4.0 | 0.00 | 0.00 | 0.00 | 33 | 1004.8 |
| 20260504232532 | 69 | 134 | 0.0 | 2.0 | 0.00 | 0.00 | 0.00 | 33 | 1005.2 |
| 20260504232030 | 69 | 239 | 1.0 | 6.0 | 0.00 | 0.00 | 0.00 | 32 | 1005.0 |
| 20260504231526 | 70 | 134 | 0.0 | 2.0 | 0.00 | 0.00 | 0.00 | 32 | 1004.7 |
| 20260504231022 | 70 | 97 | 1.0 | 6.0 | 0.00 | 0.00 | 0.00 | 31 | 1004.8 |
| 20260504230519 | 71 | 151 | 0.0 | 3.0 | 0.00 | 0.00 | 0.00 | 31 | 1004.7 |
| 20260504230018 | 71 | 164 | 1.0 | 2.0 | 0.00 | 0.00 | 0.00 | 31 | 1004.4 |
| 20260504225514 | 71 | 163 | 2.0 | 3.0 | 0.00 | 0.00 | 0.00 | 31 | 1004.6 |
| 20260504225011 | 72 | 193 | 4.0 | 6.0 | 0.00 | 0.00 | 0.00 | 30 | 1004.4 |
| 20260504224508 | 72 | 195 | 2.0 | 3.0 | 0.00 | 0.00 | 0.00 | 31 | 1004.1 |
| 20260504224005 | 71 | 102 | 3.0 | 3.0 | 0.00 | 0.00 | 0.00 | 30 | 1004.3 |
| 20260504223501 | 71 | 327 | 1.0 | 6.0 | 0.00 | 0.00 | 0.00 | 30 | 1004.3 |
| 20260504222957 | 72 | 31 | 2.0 | 6.0 | 0.00 | 0.00 | 0.00 | 30 | 1004.2 |
| 20260504222455 | 72 | 227 | 2.0 | 9.0 | 0.00 | 0.00 | 0.00 | 30 | 1004.3 |
| 20260504221952 | 73 | 315 | 4.0 | 6.0 | 0.00 | 0.00 | 0.00 | 29 | 1004.3 |
| 20260504221449 | 73 | 280 | 6.0 | 7.0 | 0.00 | 0.00 | 0.00 | 29 | 1004.2 |
| 20260504220946 | 72 | 206 | 4.0 | 13.0 | 0.00 | 0.00 | 0.00 | 29 | 1004.3 |
| 20260504220442 | 73 | 94 | 2.0 | 8.0 | 0.00 | 0.00 | 0.00 | 29 | 1004.3 |
| 20260504215939 | 73 | 278 | 6.0 | 10.0 | 0.00 | 0.00 | 0.00 | 29 | 1004.2 |
| 20260504215436 | 73 | 276 | 3.0 | 13.0 | 0.00 | 0.00 | 0.00 | 28 | 1004.4 |
| 20260504214933 | 73 | 290 | 2.0 | 7.0 | 0.00 | 0.00 | 0.00 | 29 | 1004.2 |
| 20260504214429 | 72 | 260 | 3.0 | 6.0 | 0.00 | 0.00 | 0.00 | 29 | 1004.3 |
| 20260504213926 | 72 | 310 | 9.0 | 11.0 | 0.00 | 0.00 | 0.00 | 29 | 1004.1 |
| 20260504213422 | 73 | 187 | 3.0 | 4.0 | 0.00 | 0.00 | 0.00 | 28 | 1004.4 |
| 20260504212920 | 73 | 163 | 4.0 | 10.0 | 0.00 | 0.00 | 0.00 | 28 | 1004.2 |
| 20260504212415 | 74 | 312 | 8.0 | 15.0 | 0.00 | 0.00 | 0.00 | 28 | 1004.2 |
| 20260504211913 | 73 | 336 | 10.0 | 11.0 | 0.00 | 0.00 | 0.00 | 28 | 1004.4 |
| 20260504211409 | 74 | 290 | 7.0 | 10.0 | 0.00 | 0.00 | 0.00 | 28 | 1004.4 |
| 20260504210906 | 74 | 266 | 3.0 | 7.0 | 0.00 | 0.00 | 0.00 | 27 | 1004.3 |
| 20260504210403 | 74 | 291 | 2.0 | 4.0 | 0.00 | 0.00 | 0.00 | 27 | 1004.3 |
| 20260504205900 | 74 | 139 | 4.0 | 7.0 | 0.00 | 0.00 | 0.00 | 27 | 1004.2 |
| 20260504205358 | 73 | 235 | 5.0 | 8.0 | 0.00 | 0.00 | 0.00 | 28 | 1004.2 |